Regional Weather Roundup
Issued by NWS Mobile, AL

Home | Current Version | Previous Version | Text Only | Print | Product List | Glossary On
Versions: 1 2 3 4 5 6 7 8 9 10 11 12 13 14 15 16 17 18 19 20 21 22 23 24 25 26 27 28
000
ASUS44 KMOB 130012
RWRMOB
REGIONAL WEATHER ROUNDUP
NATIONAL WEATHER SERVICE MOBILE AL
600 PM CST TUE DEC 12 2017

NOTE: "FAIR" INDICATES FEW OR NO CLOUDS BELOW 12,000 FEET WITH NO
      SIGNIFICANT WEATHER AND/OR OBSTRUCTIONS TO VISIBILITY.

  * THESE STATIONS ARE PART OF THE UNIVERSITY OF SOUTH ALABAMA
    MESONET AND ARE NOT UNDER NWS OR FAA QUALITY CONTROL.

ALZ061>064-130100-
COASTAL ALABAMA

CITY           SKY/WX    TMP DP  RH WIND       PRES   REMARKS
MOBILE REG APT CLEAR     51  35  54 NW5       30.12R
6HR MIN TEMP:  51; 6HR MAX TEMP:  61;

BROOKLEY FIELD CLEAR     54  36  50 NW6       30.12R
6HR MIN TEMP:  53; 6HR MAX TEMP:  63;

USA CAMPUS*    NOT AVBL
DOG RIVER*     NOT AVBL


CITY           SKY/WX    TMP DP  RH WIND       PRES   REMARKS
GULF SHORES    CLEAR     48  36  61 W6        30.11R

$$

ALZ051>060-130100-
INTERIOR SOUTHWEST AND SOUTH CENTRAL ALABAMA

CITY           SKY/WX    TMP DP  RH WIND       PRES   REMARKS
GREENVILLE     CLEAR     50  31  48 NW7       30.05R
6HR MIN TEMP:  50; 6HR MAX TEMP:  58;

EVERGREEN      CLEAR     46  34  62 CALM      30.08R
6HR MIN TEMP:  46; 6HR MAX TEMP:  60;

ATMORE*          N/A    N/A N/A N/A W5          N/A
ANDALUSIA/OPP  CLEAR     51  34  52 W6        30.05R
6HR MIN TEMP:  51; 6HR MAX TEMP:  62;

ANDALUSIA*       N/A     48  34  57 NW9       30.05R
FLORALA APT    CLEAR     46  36  68 CALM      30.08R
6HR MIN TEMP:  45; 6HR MAX TEMP:  60;

FLORALA*         N/A     50  36  57 CALM      30.76R

$$

FLZ001>006-130100-
WESTERN FLORIDA PANHANDLE

CITY           SKY/WX    TMP DP  RH WIND       PRES   REMARKS
PENSACOLA      CLEAR     51  36  56 NW7       30.08R
6HR MIN TEMP:  51; 6HR MAX TEMP:  63;

NAS PENSACOLA  CLEAR     52  35  52 NW5       30.09R
6HR MIN TEMP:  52; 6HR MAX TEMP:  63;

MILTON         CLEAR     46  34  62 NW6       30.08R
6HR MIN TEMP:  45; 6HR MAX TEMP:  61;

WHTNG S FIELD  CLEAR     51  36  56 NW6       30.08R
6HR MIN TEMP:  49; 6HR MAX TEMP:  65;



CITY           SKY/WX    TMP DP  RH WIND       PRES   REMARKS
JAY*             N/A     50  34  53 NW8       30.09R
DUKE FIELD     CLEAR     49  34  55 NW7       30.05R
CRESTVIEW      CLEAR     43  36  76 N3        30.08R
6HR MIN TEMP:  43; 6HR MAX TEMP:  62;

VALPARAISO     CLEAR     52  33  48 NW9       30.05R
6HR MIN TEMP:  52; 6HR MAX TEMP:  63; 6HR PCP: TRACE;

DESTIN         CLEAR     57  34  41 NW12      30.05R
6HR MIN TEMP:  56; 6HR MAX TEMP:  65;


$$

MSZ076-079-130100-
INTERIOR SOUTHEAST MISSISSIPPI

CITY           SKY/WX    TMP DP  RH WIND       PRES   REMARKS
LEAKESVILLE*     N/A     48  36  61 W3        30.13R
AGRICOLA*        N/A     50  36  57 NW3       30.11R

$$

MARINE OBSERVATIONS

STATION/POSITION TIME  TEMP    WIND        PRES    WAVE
                       AIR SEA DIR/SP/G            HT/PER
                 (UTC) (F)     (DEG/KT/KT) (MB)    (FT/S)
PASCAGOULA       2336   54     320/  5/  6 1019.6R
PETIT BOIS ISLND 2336   56     320/  8/ 11 1020.5R
KATRINA CUT      2330   56     320/ 11     1019.6R
CEDAR POINT      2330   55     310/  7     1019.0R
E DAUPHIN ISLAND 2300   57     300/ 10/ 11 1018.4R
MIDDLE BAY LIGHT 2330   56     320/ 12     1019.0R
USCG MOBILE BAY  2336   54 56  310/  4/  5 1019.6R
STATE DOCKS      2336   54 56              1019.4R
MEAHER PARK      2330   54     310/  5     1019.3R
WEEKS BAY        2245   56                 1018.0R
FORT MORGAN      2336   56     320/ 12/ 13   N/A
12 S ORANGE BCH  NOT AVBL
PENSACOLA BAY    2336   56 58              1018.5R
64 S DAUPHIN ISL 2350   61 73  320/ 17/ 21 1019.7R   4/ 5
67 S FORT MORGAN 2330   59                 1019.0R

$$

SELECTED LOCATIONS ACROSS THE REGION

CITY           SKY/WX    TMP DP  RH WIND       PRES   REMARKS
NEW ORLEANS    CLEAR     54  43  66 NW6       30.15R
GULFPORT       CLEAR     52  37  56 W5        30.12R
PASCAGOULA AP  CLEAR     49  34  56 CALM      30.12R
PASCAGOULA*      N/A     50  37  62 CALM        N/A
HATTIESBURG    CLEAR     51  34  52 NW5       30.14R
LAUREL         CLEAR     49  33  54 NW5       30.15R
MERIDIAN       CLEAR     47  33  58 W6        30.12R
JACKSON        CLEAR     48  29  47 CALM      30.15R
MONTGOMERY     CLEAR     47  30  51 NW8       30.06R
TROY           CLEAR     46  34  62 NW6       30.04R
ASHFORD*         N/A     48  34  57 NW9       30.05R
DOTHAN         CLEAR     48  35  60 NW7       30.05R
PANAMA CITY    CLEAR     49  36  61 NW3       30.03R

$$





USA.gov is the U.S. government's official web portal to all federal, state and local government web resources and services.